• In Belarus
  • List of Countries
  • For 7 days
  • Water Temperature
  • Satellite Maps
  • Weather Map
  • Weather Widgets
  • user-avatar
    Login

    Hourly Weather Banfora

    Today, 20 February, Tuesday

    Time Temperature Precipitation Wind Pressure Humidity
    00:00 +35°C° 0 mm 2 mps 730 mmHg 34%
    01:00 +34°C° 0.5 mm 2 mps 730 mmHg 37%
    02:00 +34°C° 0.5 mm 2 mps 730 mmHg 40%
    03:00 +33°C° 0.5 mm 3 mps 730 mmHg 44%
    04:00 +31°C° 0 mm 2 mps 730 mmHg 45%
    05:00 +31°C° 0 mm 2 mps 730 mmHg 47%
    06:00 +31°C° 0 mm 2 mps 730 mmHg 49%
    07:00 +32°C° 0 mm 2 mps 731 mmHg 48%
    08:00 +33°C° 0 mm 3 mps 731 mmHg 47%
    09:00 +34°C° 0 mm 3 mps 731 mmHg 46%
    10:00 +36°C° 0 mm 3 mps 731 mmHg 41%
    11:00 +38°C° 0 mm 3 mps 731 mmHg 36%
    12:00 +40°C° 0 mm 3 mps 731 mmHg 31%
    13:00 +39°C° 0 mm 2 mps 730 mmHg 31%
    14:00 +39°C° 0 mm 2 mps 730 mmHg 31%
    15:00 +39°C° 0 mm 1 mps 729 mmHg 31%
    16:00 +38°C° 0.2 mm 2 mps 729 mmHg 33%
    17:00 +38°C° 0.2 mm 2 mps 729 mmHg 35%
    18:00 +37°C° 0.2 mm 2 mps 729 mmHg 36%
    19:00 +36°C° 0.4 mm 3 mps 730 mmHg 40%
    20:00 +35°C° 0.4 mm 3 mps 730 mmHg 44%
    21:00 +33°C° 0.4 mm 3 mps 731 mmHg 48%
    22:00 +33°C° 0.1 mm 3 mps 731 mmHg 47%
    23:00 +33°C° 0.1 mm 3 mps 731 mmHg 46%

    Tomorrow, 21 February, Wednesday

    Time Temperature Precipitation Wind Pressure Humidity
    00:00 +33°C° 0.1 mm 3 mps 731 mmHg 44%
    01:00 +33°C° 0.1 mm 3 mps 731 mmHg 46%
    02:00 +31°C° 0.1 mm 2 mps 730 mmHg 47%
    03:00 +31°C° 0.1 mm 2 mps 730 mmHg 48%
    04:00 +30°C° 0 mm 2 mps 730 mmHg 50%
    05:00 +30°C° 0 mm 2 mps 730 mmHg 52%
    06:00 +29°C° 0 mm 2 mps 729 mmHg 54%
    07:00 +30°C° 0 mm 2 mps 730 mmHg 52%
    08:00 +31°C° 0 mm 3 mps 731 mmHg 50%
    09:00 +34°C° 0 mm 4 mps 731 mmHg 49%
    10:00 +35°C° 0 mm 4 mps 731 mmHg 44%
    11:00 +37°C° 0 mm 4 mps 731 mmHg 39%
    12:00 +40°C° 0 mm 4 mps 731 mmHg 34%
    13:00 +40°C° 0 mm 4 mps 730 mmHg 33%
    14:00 +39°C° 0 mm 3 mps 729 mmHg 32%
    15:00 +39°C° 0 mm 3 mps 728 mmHg 30%
    16:00 +39°C° 0 mm 3 mps 728 mmHg 30%
    17:00 +39°C° 0 mm 2 mps 728 mmHg 31%
    18:00 +39°C° 0 mm 2 mps 728 mmHg 31%
    19:00 +37°C° 0 mm 2 mps 729 mmHg 33%
    20:00 +36°C° 0 mm 2 mps 729 mmHg 35%
    21:00 +35°C° 0 mm 2 mps 729 mmHg 38%
    22:00 +35°C° 0 mm 2 mps 729 mmHg 39%
    23:00 +34°C° 0 mm 2 mps 730 mmHg 41%

    Day after tomorrow, 22 February, Thursday

    Time Temperature Precipitation Wind Pressure Humidity
    00:00 +32°C° 0 mm 2 mps 730 mmHg 43%
    01:00 +32°C° 0 mm 2 mps 729 mmHg 48%
    02:00 +31°C° 0 mm 2 mps 729 mmHg 52%
    03:00 +30°C° 0 mm 3 mps 728 mmHg 56%
    04:00 +30°C° 0 mm 3 mps 728 mmHg 59%
    05:00 +30°C° 0 mm 2 mps 729 mmHg 62%
    06:00 +29°C° 0 mm 2 mps 729 mmHg 65%
    07:00 +30°C° 0 mm 3 mps 729 mmHg 62%
    08:00 +31°C° 0 mm 3 mps 730 mmHg 59%
    09:00 +33°C° 0 mm 4 mps 731 mmHg 56%
    10:00 +34°C° 0 mm 4 mps 731 mmHg 51%
    11:00 +36°C° 0 mm 4 mps 730 mmHg 45%
    12:00 +37°C° 0 mm 4 mps 730 mmHg 39%
    13:00 +38°C° 0 mm 3 mps 729 mmHg 35%
    14:00 +39°C° 0 mm 3 mps 728 mmHg 31%
    15:00 +40°C° 0 mm 2 mps 728 mmHg 27%
    16:00 +39°C° 0 mm 2 mps 728 mmHg 26%
    17:00 +39°C° 0 mm 2 mps 728 mmHg 26%
    18:00 +39°C° 0 mm 1 mps 728 mmHg 25%
    19:00 +36°C° 0 mm 1 mps 728 mmHg 27%
    20:00 +35°C° 0 mm 1 mps 728 mmHg 28%
    21:00 +34°C° 0 mm 1 mps 729 mmHg 29%
    22:00 +34°C° 0 mm 1 mps 729 mmHg 29%
    23:00 +33°C° 0 mm 1 mps 729 mmHg 30%

    23 February, Friday

    Time Temperature Precipitation Wind Pressure Humidity
    00:00 +32°C° 0 mm 1 mps 729 mmHg 30%
    01:00 +32°C° 0 mm 1 mps 728 mmHg 32%
    02:00 +31°C° 0 mm 1 mps 728 mmHg 33%
    03:00 +31°C° 0 mm 1 mps 728 mmHg 35%
    04:00 +30°C° 0.2 mm 1 mps 728 mmHg 40%
    05:00 +30°C° 0.2 mm 2 mps 728 mmHg 44%
    06:00 +29°C° 0.2 mm 2 mps 729 mmHg 49%
    07:00 +30°C° 0 mm 3 mps 729 mmHg 50%
    08:00 +31°C° 0 mm 3 mps 730 mmHg 52%
    09:00 +33°C° 0 mm 4 mps 731 mmHg 54%
    10:00 +35°C° 0 mm 4 mps 730 mmHg 48%
    11:00 +36°C° 0 mm 4 mps 730 mmHg 42%
    12:00 +38°C° 0 mm 4 mps 730 mmHg 35%
    13:00 +39°C° 0 mm 3 mps 729 mmHg 32%
    14:00 +39°C° 0 mm 3 mps 728 mmHg 29%
    15:00 +40°C° 0 mm 3 mps 728 mmHg 26%
    16:00 +40°C° 0 mm 3 mps 728 mmHg 27%
    17:00 +39°C° 0 mm 3 mps 728 mmHg 28%
    18:00 +38°C° 0 mm 3 mps 728 mmHg 28%
    19:00 +38°C° 0 mm 3 mps 729 mmHg 32%
    20:00 +37°C° 0 mm 3 mps 729 mmHg 36%
    21:00 +36°C° 0 mm 3 mps 730 mmHg 39%
    22:00 +35°C° 0 mm 3 mps 730 mmHg 43%
    23:00 +34°C° 0 mm 3 mps 730 mmHg 46%

    24 February, Saturday

    Time Temperature Precipitation Wind Pressure Humidity
    00:00 +33°C° 0 mm 3 mps 730 mmHg 50%
    01:00 +32°C° 0 mm 2 mps 730 mmHg 52%
    02:00 +31°C° 0 mm 2 mps 730 mmHg 54%
    03:00 +31°C° 0 mm 2 mps 729 mmHg 56%
    04:00 +30°C° 0 mm 2 mps 730 mmHg 57%
    05:00 +30°C° 0 mm 2 mps 730 mmHg 59%
    06:00 +30°C° 0 mm 2 mps 730 mmHg 61%
    07:00 +30°C° 0 mm 2 mps 731 mmHg 58%
    08:00 +31°C° 0 mm 3 mps 732 mmHg 55%
    09:00 +33°C° 0 mm 3 mps 732 mmHg 53%
    10:00 +35°C° 0 mm 2 mps 732 mmHg 45%
    11:00 +38°C° 0 mm 2 mps 732 mmHg 37%
    12:00 +40°C° 0 mm 2 mps 731 mmHg 30%
    13:00 +40°C° 0 mm 1 mps 731 mmHg 28%
    14:00 +41°C° 0 mm 1 mps 730 mmHg 25%
    15:00 +42°C° 0 mm 1 mps 729 mmHg 23%
    16:00 +41°C° 0 mm 1 mps 729 mmHg 24%
    17:00 +40°C° 0 mm 1 mps 729 mmHg 25%
    18:00 +39°C° 0 mm 1 mps 730 mmHg 26%
    19:00 +38°C° 0.2 mm 2 mps 730 mmHg 29%
    20:00 +37°C° 0.2 mm 2 mps 731 mmHg 32%
    21:00 +36°C° 0.2 mm 2 mps 731 mmHg 34%
    22:00 +35°C° 1.3 mm 2 mps 731 mmHg 36%
    23:00 +33°C° 1.3 mm 3 mps 732 mmHg 39%

    25 February, Sunday

    Time Temperature Precipitation Wind Pressure Humidity
    00:00 +31°C° 1.3 mm 3 mps 732 mmHg 41%
    01:00 +30°C° 1.3 mm 2 mps 732 mmHg 43%
    02:00 +29°C° 1.3 mm 1 mps 731 mmHg 45%
    03:00 +29°C° 1.3 mm 1 mps 731 mmHg 48%
    04:00 +28°C° 1.2 mm 1 mps 732 mmHg 51%
    05:00 +28°C° 1.2 mm 1 mps 732 mmHg 54%
    06:00 +28°C° 1.2 mm 1 mps 732 mmHg 58%
    07:00 +28°C° 0.1 mm 1 mps 733 mmHg 59%
    08:00 +28°C° 0.1 mm 2 mps 733 mmHg 60%
    09:00 +29°C° 0.1 mm 2 mps 734 mmHg 61%
    10:00 +31°C° 0 mm 2 mps 733 mmHg 55%
    11:00 +32°C° 0 mm 2 mps 733 mmHg 48%
    12:00 +34°C° 0 mm 1 mps 733 mmHg 42%
    13:00 +35°C° 0 mm 1 mps 732 mmHg 39%
    14:00 +37°C° 0 mm 1 mps 732 mmHg 35%
    15:00 +39°C° 0 mm 1 mps 731 mmHg 32%
    16:00 +37°C° 0 mm 1 mps 731 mmHg 33%
    17:00 +36°C° 0 mm 1 mps 731 mmHg 34%
    18:00 +36°C° 0 mm 1 mps 731 mmHg 36%
    19:00 +35°C° 0.1 mm 1 mps 732 mmHg 38%
    20:00 +34°C° 0.1 mm 1 mps 732 mmHg 40%
    21:00 +33°C° 0.1 mm 1 mps 732 mmHg 43%
    22:00 +33°C° 0 mm 1 mps 732 mmHg 43%
    23:00 +33°C° 0 mm 1 mps 732 mmHg 44%
    Show more